Showing default

ARKTIKA-M 1, 47719

Orbit data source: Space-Track

ARKTIKA-M 1, 47719 is a payload satellite owned by Roskosmos (CIS) that was launched on Sun, 28 Feb 2021 UTC via a SOYUZ-2-1B launch vehicle from the Tyuratam Missile And Space Complex (TTMTR). Payloads include a variety of satellites, spacecraft, and rockets equipped with specific instruments for various scientific and technological missions. These include communications satellites like Starlink; space stations such as the ISS; scientific satellites like the Hubble; Earth observation satellites from companies like Planet Labs, Umbra, and HawkEye 360; GPS; miniature CubeSats for education and research; and military/defense satellites.

Loading next visibility...
ARKTIKA-M 1 details
Identifier
47719, 2021-016A
Orbit
Molniya
Last TLE update1 month ago
Origin
Flag of CISRoskosmos (CIS)
ManufacturerLavochkin
MissionOperational Civil Weather
Bus & MotorNAVIGATOR, Unknown motor
Mass2,200 kg wet, ~2,000 kg dry
Launch date (UTC)
2021-02-28 (4 years ago)
Launch vehicle
SOYUZ-2-1B
Launch site
Tyuratam Missile And Space Complex (TTMTR)
Object type
Payload
Rocket body
Debris
Shape & HBRBox + 2 Pan, 10 m
Radar Cross Section14.304 m², Large (>1 m²)

Expand to show TLE details & history

TLE from 1 month ago
0 ARKTIKA-M 1
1 47719U 21016A   24346.21013880  .00000144  00000-0  00000+0 0  9998
2 47719  63.1345 131.0499 7012162 268.4789  17.4348  2.00604149 27701
Epoch: 2024-12-11T05:02Z
Definitive object data (Epoch: 2024-12-11T05:02:35.992Z)
Latitude0.00009°
Longitude-25.05374°
Altitude7,397.502 km
Speed6.547 km/s
True Right ascension08h 44m 01s
True Declination0° 00' 00"
Sunlit
Object was in daylight at TLE epoch
Visualization TLE readout
Latitude41.82302°
Longitude123.88111°
Altitude21,184.925 km
Speed3.731 km/s
Apparent Right ascension19h 33m 50s
Apparent Declination34° 18' 24"
Sunlit
Object is in daylight
Visualization observer readout
Local Sidereal Time12:48:35
Azimuth56.495° ENE
Elevation13.734°
Doppler factor1
Orbital elements
Apogee altitude38,799.188 km
Perigee altitude1,556.335 km
Semi-major axis26,555.899 km
Eccentricity0.7012162
Inclination63.1345°
RAAN131.0499°
Arg. of periapsis268.4789°
True anomaly91.63183°
Mean anomaly17.4348°
Eccentric anomaly46.65052°
Mean motion0.50154 °/min
BSTARUnknown
Orbital period717.8 mins
Loading maneuver chart data...
Loading historical data...
Loading historical data...
Loading historical data...
Loading historical data...
Loading historical data...
Loading historical data...
Loading historical data...
Other satellites on launch #16 in the year 2021 (2021-02-28 UTC)

ARKTIKA-M 1 Visibility forecast

Observer location: undefined°, undefined

Span
Click to sort rows by Start time (UTC) header in descending order
Start Az.
Max El. time (UTC)
Max El. Az.
Max El.
End time (UTC)
End Az.
13 mins2025-01-15 12:08:16.931Z56.515° ENE2025-01-15 12:08:16.931Z56.515° ENE13.349°2025-01-15 12:21:16.931Z59.924° ENE
499 mins2025-01-15 15:49:16.931Z306.138° NW2025-01-15 20:35:16.931Z327.223° NNW23.402°2025-01-16 00:08:16.931Z304.881° NW
523 mins2025-01-16 03:25:16.931Z62.955° ENE2025-01-16 07:28:16.931Z34.822° NE26.757°2025-01-16 12:08:16.931Z57.598° ENE
|